Volver al catálogo

TITAN 3C TRANSTAGE DEB

LostHEO
NORAD 5632·DEBRIS·🇺🇸 United States

Lanzado Dec 21, 1965 desde Cape Canaveral Space Force Station

Loading…

Próximos Pases (próximas 24 horas)

TLE

ObsoletoSource: Space-Track

Época: Jul 15, 2026, 09:44 UTC

1 05632U 65108N   26196.40570014  .00002100  00000-0  35555-2 0  9999
2 05632  26.0808 327.7096 5581632 234.7379  59.7929  4.49858508344318

Sigue TITAN 3C TRANSTAGE DEB en tiempo real con AllMySat

Download on the App Store